Regional Weather Roundup
Issued by NWS Green Bay, WI

Home | Current Version | Previous Version | Graphics & Text | Print | Product List | Glossary Off
Versions: 1 2 3 4 5 6 7 8 9 10 11 12 13 14 15 16 17 18 19 20 21 22 23 24 25 26 27 28 29 30 31 32 33 34 35 36 37 38 39 40 41 42 43 44 45 46 47 48 49 50

000
ASUS43 KGRB 242159
RWRGRB

NORTH-CENTRAL AND NORTHEAST WISCONSIN REGIONAL WEATHER ROUNDUP
NATIONAL WEATHER SERVICE GREEN BAY WI
500 PM CDT THU JUL 24 2014

WIZ005-009-010>012-018-019-242300-
NORTH CENTRAL WISCONSIN

CITY           SKY/WX    TMP DP  RH WIND       PRES   REMARKS
IRONWOOD       NOT AVBL
MANITOWISH WTR NOT AVBL
ARBOR VITAE    NOT AVBL
EAGLE RIVER    NOT AVBL
LAND O LAKES   NOT AVBL
RHINELANDER    PTSUNNY   75  49  39 W6        30.07F
PHILLIPS       NOT AVBL
ANTIGO         NOT AVBL
TOMAHAWK       NOT AVBL
MERRILL        NOT AVBL
$$

WIZ013-073-242300-
NORTHEAST WISCONSIN

CITY           SKY/WX    TMP DP  RH WIND       PRES   REMARKS
IRON MOUNTAIN  PTSUNNY   77  48  35 CALM      30.04S
MARINETTE      SUNNY     73  50  43 SW9G18    30.05S
$$

WIZ017-030-035>037-045-242300-
CENTRAL WISCONSIN

CITY           SKY/WX    TMP DP  RH WIND       PRES   REMARKS
MEDFORD        NOT AVBL
WAUSAU         SUNNY     75  49  39 NW6       30.05F
MOSINEE        PTSUNNY   73  50  43 S5        30.08F
MARSHFIELD     MOSUNNY   75  51  43 W5        30.07F
WISC RAPIDS    SUNNY     76  50  40 SW5       30.07F
STEVENS POINT  NOT AVBL
WAUPACA        NOT AVBL
SHAWANO        NOT AVBL
CLINTONVILLE   NOT AVBL
$$

WIZ038-039-048-051-242300-
FOX VALLEY

CITY           SKY/WX    TMP DP  RH WIND       PRES   REMARKS
NWS GREEN BAY  PTSUNNY   76  52  43 SW9       30.07S
APPLETON       PTSUNNY   73  50  43 VRB6      30.08S
OSHKOSH        MOSUNNY   76  55  48 E7        30.07S
FOND DU LAC    MOSUNNY   74  51  44 SW5       30.08S
$$

WIZ022-050-052-242300-
EAST CENTRAL WISCONSIN

CITY           SKY/WX    TMP DP  RH WIND       PRES   REMARKS
STURGEON BAY   SUNNY     70  46  43 S12       30.09R
MANITOWOC      NOT AVBL
SHEBOYGAN      SUNNY     70  46  42 SE8       30.10R
$$

LMZ563-521-522-541>543-242300-
LAKESHORE

STATION/POSITION TIME  TEMP    WIND        PRES    VSBY  WAVE
                       AIR SEA DIR/SP/G                  HT/PER
                 (UTC) (F)     (DEG/KT/KT) (MB)    (MI)  (FT/S)
SHEBOYGAN LKSHOR 2100   62     160/ 10/ 11 1019.4F
KEWAUNEE LKSHORE 2100   58     180/  7/  8 1019.5F
TWO RIVERS CG    2100   61                   N/A       6   0
NORTHPORT PIER   2100   65     150/  9/ 14 1017.9F
N MID LAKE BUOY  2100   59 57  210/  8/ 10 1018.5F         0
STURGEON BAY CG  2100   58 50  180/ 11     1019.9      6   1
CHAMBERS ISLAND  2100   72     170/  5/ 10 1017.6F
MENOMINEE LKSHOR 2100   71     170/  9/ 13 1018.5F
$$


USA.gov is the U.S. government's official web portal to all federal, state and local government web resources and services.